Preview of NWS' New Version of Forecast
This preview is not operational and should not be used for support decisions.

Regional Weather Roundup (RWR)

Issued by National Weather Service (NWS)

                            
000
ASUS44 KMEG 200510
RWRTN 
TENNESSEE HOURLY STATE WEATHER ROUNDUP
NATIONAL WEATHER SERVICE MEMPHIS TN
1200 AM CDT THU JUN 20 2019

TNZ002-004-019-021-049-052-054-088>092-200600-
WEST TENNESSEE
  
CITY           SKY/WX    TMP DP  RH WIND       PRES   REMARKS
MEMPHIS INTL   TSTM      71  69  93 W26G38    29.75R                  
NWS MEMPHIS      N/A     76 N/A N/A MISG        N/A                   
JACKSON        MOCLDY    74  68  81 S9        29.70F THUNDER          
DYERSBURG      CLOUDY    78  70  76 SE5       29.67F                  
COVINGTON      HAZE      75  66  73 SE10G47   29.66F VSB 1/2          
UNION CITY     CLEAR     72  72 100 CALM      29.65F                  
BOLIVAR        MOCLDY    79  73  83 VRB7G14   29.70F                  
PARIS          CLEAR     72  72 100 S5        29.67F                  
HUNTINGDON     CLEAR     77  73  88 S6        29.67F                  
LEXINGTON      PTCLDY    79  72  78 SW7       29.70S                  
SELMER         MOCLDY    79  73  83 SW6G13    29.72S                  
SAVANNAH       MOCLDY    81  73  78 SW10      29.72S                  
$$

TNZ008-025-027-028-033-062-065-066-200600-
NORTH MIDDLE TENNESSEE
  
CITY           SKY/WX    TMP DP  RH WIND       PRES   REMARKS
NASHVILLE      MOCLDY    71  68  90 S3        29.72F                  
DICKSON        MOCLDY    70  68  94 CALM      29.71S                  
PORTLAND       MOCLDY    70  68  94 S6        29.71F                  
CLARKSVILLE    MOCLDY    70  68  93 CALM      29.69F                  
LEBANON        MOCLDY    70  68  94 SW5       29.71S                  
SMYRNA         CLOUDY    69  69 100 CALM      29.74S                  
MURFREESBORO   MOCLDY    70  68  94 S6        29.72S                  
COOKEVILLE     CLOUDY    68  66  94 S7        29.77R                  
LIVINGSTON     CLOUDY    68  66  94 SW7       29.75F                  
GALLATIN       MOCLDY    70  70 100 CALM      29.75S                  
CROSSVILLE     CLOUDY    65  63  93 VRB3      29.82S                  
ROCKWOOD       CLOUDY    66  64  94 SW7G17    29.80R                  
$$

TNZ061-075-076-078-094-096-097-200600-
SOUTH MIDDLE TENNESSEE
  
CITY           SKY/WX    TMP DP  RH WIND       PRES   REMARKS
LAWRENCEBURG   CLOUDY    77  70  78 VRB5      29.76S                  
LEWISBURG      PTCLDY    75  70  83 S8        29.74S                  
FAYETTEVILLE   CLOUDY    79  70  73 S8        29.78R                  
TULLAHOMA      PTCLDY    73  70  88 SW7       29.77S                  
WINCHESTER     CLOUDY    79  68  69 SW9G16    29.78R                  
MCMINNVILLE    MOCLDY    68  66  94 S3        29.78R                  
COLUMBIA       CLEAR     77  73  88 SW14G20   29.71F                  
SHELBYVILLE    MOCLDY    72  70  94 S6        29.75S                  
$$

TNZ017-018-042-046-047-200600-
NORTHEAST TENNESSEE
  
CITY           SKY/WX    TMP DP  RH WIND       PRES   REMARKS
TRI CITIES     FAIR      70  67  90 CALM      29.79F                  
ELIZABETHTON   CLOUDY    70  66  88 VRB5      29.79F                  
GREENEVILLE    MOCLDY    72  68  88 VRB3      29.78F                  
$$

TNZ012-013-036-069-073-074-200600-
CENTRAL EAST TENNESSEE
  
CITY           SKY/WX    TMP DP  RH WIND       PRES   REMARKS
KNOXVILLE      TSTM      67  63  87 SW16      29.76S FOG              
OAK RIDGE      RAIN      72  68  87 SW7       29.78R                  
DOWNTOWN KNOXV MOCLDY    72  72 100 CALM      29.74F                  
GATLINBURG     PTCLDY    72  70  94 CALM      29.75F                  
MORRISTOWN     PTCLDY    68  68 100 CALM      29.76F                  
JACKSBORO      CLOUDY    66  64  94 SW5       29.80F FOG              
$$

TNZ083-085-099-200600-
SOUTHEAST TENNESSEE
  
CITY           SKY/WX    TMP DP  RH WIND       PRES   REMARKS
CHATTANOOGA    FAIR      78  73  84 S5        29.79R                  
$$

SKY/WX REPORTED AS FAIR MEANS FEW OR NO CLOUDS BELOW
12 THOUSAND FEET.